Location: Forli
(44.2227°N, 12.0407°E)
Time: 13:20:45
(UTC+02:00)

UWE-3 - Pass Details

Date: 22 April 2026
Orbit: 542 x 613 km, 97.9° (Epoch: 10 May)

Event Time Altitude Azimuth Distance (km) Brightness Sun altitude
Rises 05:34:06 0° 351° (N) 2,729 ? -8.0°
Reaches altitude 10° 05:37:52 10° 313° (NW) 1,818 ? -7.4°
Maximum altitude 05:38:48 11° 299° (WNW) 1,768 ? -7.2°
Drops below altitude 10° 05:39:44 10° 286° (WNW) 1,812 ? -7.1°
Enters shadow 05:41:11 - 267° (W) 2,049 ? -6.8°
